Regional Weather Roundup
Issued by NWS Charleston, WV

Home | Current Version | Previous Version | Graphics & Text | Print | Product List | Glossary On
Versions: 1 2 3 4 5 6 7 8 9 10 11 12 13 14 15 16 17 18 19 20 21 22 23 24 25 26 27 28 29 30 31 32 33 34 35 36 37 38 39 40 41 42 43 44 45 46 47 48 49 50
000
ASUS41 KRLX 181910
RWRRLX
West Virginia Regional Weather Roundup
National Weather Service Charleston WV
200 PM EST THU DEC 18 2014

Note: "fair" indicates few or no clouds below 12,000 feet with no
significant weather and/or obstructions to visibility.

WVZ003-182000-
Northern Panhandle of West Virginia

CITY           SKY/WX    TMP DP  RH WIND       PRES   REMARKS
WHEELING       CLOUDY    28  20  71 VRB6      30.16F
$$

WVZ009-182000-
Northwest West Virginia

CITY           SKY/WX    TMP DP  RH WIND       PRES   REMARKS
PARKERSBURG    CLOUDY    29  19  66 SW3       30.22F
$$

WVZ006-182000-
Western West Virginia

CITY           SKY/WX    TMP DP  RH WIND       PRES   REMARKS
HUNTINGTON     CLOUDY    32  22  66 N5        30.20F
$$

WVZ015-182000-
West Central West Virginia

CITY           SKY/WX    TMP DP  RH WIND       PRES   REMARKS
CHARLESTON     CLOUDY    32  22  66 W5        30.19F
$$

WVZ022-031-182000-
North Central West Virginia

CITY           SKY/WX    TMP DP  RH WIND       PRES   REMARKS
CLARKSBURG     CLOUDY    28  20  71 W6        30.17F
MORGANTOWN     CLOUDY    29  18  63 VRB5      30.17F
$$

WVZ025-035-042-045-182000-
Southern West Virginia

CITY           SKY/WX    TMP DP  RH WIND       PRES   REMARKS
BECKLEY        PTSUNNY   35  21  56 W7        30.08F
LOGAN          CLOUDY    34  23  64 CALM      30.12F
BLUEFIELD      PTSUNNY   39  18  42 NW13G18   30.06F
LEWISBURG      MOSUNNY   37  22  55 W7        30.06F
$$

WVZ047-182000-
Northern Mountains of West Virginia

CITY           SKY/WX    TMP DP  RH WIND       PRES   REMARKS
ELKINS         CLOUDY    28  21  75 NW3       30.12F
$$

WVZ052-182000-
Eastern Panhandle of West Virginia

CITY           SKY/WX    TMP DP  RH WIND       PRES   REMARKS
MARTINSBURG    PTSUNNY   37  19  48 NW15G24   30.11F
PETERSBURG     MOSUNNY   39  20  46 NE5       30.11F
$$


USA.gov is the U.S. government's official web portal to all federal, state and local government web resources and services.